COSMOS 2514 (751)

Last updated on Aug. 14, 2020, 5:31 a.m. UTC

1 41330U 16008A   20226.62507152 -.00000029  00000-0  00000+0 0  9997
2 41330  65.5144  25.4546 0009540 199.9787 213.2160  2.13102920 35151
UTC
Height (km)
Latitude
Longitude
Inclination
Orbital Period
UTC large
Height (km)
Speed (km/s)
/
Latitude / Longitude
Inclination (degrees)
Orbital Period (minutes)
Azimuth
Elevation
Range (km)
Doppler Factor
iOS Compass Heading
iOS Angle

Next 30 passes for location: Hong Kong

Rise time Rise Azimuth (degrees) Set time Set Azimuth (degrees) Duration Max altitude (degrees)

No matching passes for this satellites